THOR ABLESTAR DEB, 1425

Orbit data source: Space-Track

THOR ABLESTAR DEB, 1425 is space debris in LEO originally from a launch on Thu, 24 Jun 1965 UTC launched from the Air Force Western Test Range (AFWTR). Debris objects in space refer to the collection of defunct objects orbiting the Earth. Examples of debris include non-operational satellites, rocket bodies, and fragments generated from explosions, collisions, or faulty payload assembly.

Loading next visibility...
Identifier
1425, 1965-048C
Orbit
LEO
Country
Flag of USUS
Related business
Manufacturer
APL
Mission
Spacecraft
Bus & Motor
Unknown
Mass
Unknown
Launch date (UTC)
1965-06-24 (60 years ago)
Launch vehicle
Unknown
Launch site
Air Force Western Test Range (AFWTR)
Object type
Payload
Rocket body
Debris
Shape & HBR
Unknown shape, 0.4 m
Radar Cross Section
Medium (>0.1 m² and <1 m²)

Expand to show TLE details & history
Last TLE update: 10 hours ago

TLE from 10 hours ago
0 THOR ABLESTAR DEB
1 01425U 65048C   25296.97889331  .00000043  00000-0  52764-4 0  9992
2 01425  89.8755 287.8296 0073549 185.1504 229.5938 13.48928557968586
Epoch: 2025-10-23T23:29Z
TLE epoch observation values (Epoch: 2025-10-23T23:29:36.381Z)
Latitude
54.19947°
Longitude
-97.03063°
Altitude
1,120.976 km
Speed
7.28 km/s
True Right ascension
19h 12m 00s
True Declination
54° 02' 39"
Sunlit
Object was in daylight at epoch
Visualization orbit readout
Latitude
Unknown
Longitude
Unknown
Altitude
Unknown
Speed
Unknown
Apparent Right ascension
Unknown
Apparent Declination
Unknown
Sunlit
N/A
Visualization observer readout
Local Sidereal Time
04:45:08
Azimuth
Unknown
Elevation
Unknown
Doppler factor
Unknown
Orbital elements
Apogee altitude
1,128.059 km
Perigee altitude
1,018.45 km
Semi-major axis
7,451.391 km
Eccentricity
0.00735
Inclination
89.8755°
RAAN
287.8296°
Arg. of periapsis
185.1504°
True anomaly
228.95584°
Mean anomaly
229.5938°
Eccentric anomaly
229.27444°
Mean motion
3.37433 °/min
Orbital period
106.69 mins
BSTAR
0.000052764
Loading maneuver chart data...
Computing Atmospheric mass density...

Documentation

Showing up to 5 results
|